Time,TemperatureF,DewpointF,PressureIn,WindDirection,WindDirectionDegrees,WindSpeedMPH,WindSpeedGustMPH,Humidity,HourlyPrecipIn,Conditions,Clouds,dailyrainin,SoftwareType,DateUTC
2013-05-29 00:14:00,56.7,56.4,29.88,East,90,2.7,-999.0,99,-99.99,,,0.00,Acu-Link.com,2013-05-29 04:14:00,
2013-05-29 00:30:00,56.8,56.5,29.88,ENE,67,2.7,-999.0,99,-99.99,,,0.00,Acu-Link.com,2013-05-29 04:30:00,
2013-05-29 00:45:00,57.4,57.1,29.87,East,90,2.7,-999.0,99,-99.99,,,0.00,Acu-Link.com,2013-05-29 04:45:00,
2013-05-29 01:00:00,57.4,57.1,29.87,NE,45,2.2,-999.0,99,-99.99,,,0.00,Acu-Link.com,2013-05-29 05:00:00,
2013-05-29 01:15:00,57.7,57.4,29.86,ENE,67,3.2,-999.0,99,-99.99,,,0.00,Acu-Link.com,2013-05-29 05:15:00,
2013-05-29 01:30:00,58.5,58.2,29.86,ENE,67,2.7,-999.0,99,-99.99,,,0.00,Acu-Link.com,2013-05-29 05:30:00,
2013-05-29 01:45:00,58.8,58.5,29.86,SE,135,4.2,-999.0,99,-99.99,,,0.00,Acu-Link.com,2013-05-29 05:45:00,
2013-05-29 02:01:00,59.0,58.7,29.86,SW,225,3.2,-999.0,99,-99.99,,,0.00,Acu-Link.com,2013-05-29 06:01:00,
2013-05-29 02:16:00,59.0,58.7,29.86,ESE,112,2.2,-999.0,99,-99.99,,,0.00,Acu-Link.com,2013-05-29 06:16:00,
2013-05-29 02:31:00,59.0,58.7,29.86,East,90,3.2,-999.0,99,-99.99,,,0.00,Acu-Link.com,2013-05-29 06:31:00,
2013-05-29 02:46:00,59.0,58.7,29.86,East,90,2.2,-999.0,99,-99.99,,,0.00,Acu-Link.com,2013-05-29 06:46:00,
2013-05-29 03:01:00,58.8,58.5,29.85,East,90,2.2,-999.0,99,-99.99,,,0.00,Acu-Link.com,2013-05-29 07:01:00,
2013-05-29 03:17:00,58.8,58.5,29.85,East,90,2.7,-999.0,99,-99.99,,,0.00,Acu-Link.com,2013-05-29 07:17:00,
2013-05-29 03:32:00,59.0,58.7,29.85,ENE,67,3.2,-999.0,99,-99.99,,,0.00,Acu-Link.com,2013-05-29 07:32:00,
2013-05-29 03:47:00,59.2,58.9,29.85,ENE,67,2.2,-999.0,99,-99.99,,,0.00,Acu-Link.com,2013-05-29 07:47:00,
2013-05-29 04:02:00,59.5,59.2,29.85,SE,135,2.7,-999.0,99,-99.99,,,0.00,Acu-Link.com,2013-05-29 08:02:00,
2013-05-29 04:18:00,59.5,59.2,29.85,ESE,112,2.2,-999.0,99,-99.99,,,0.00,Acu-Link.com,2013-05-29 08:18:00,
2013-05-29 04:33:00,59.5,59.2,29.85,ESE,112,3.7,-999.0,99,-99.99,,,0.00,Acu-Link.com,2013-05-29 08:33:00,
2013-05-29 04:48:00,59.7,59.4,29.85,North,0,2.2,-999.0,99,-99.99,,,0.00,Acu-Link.com,2013-05-29 08:48:00,
2013-05-29 05:03:00,59.9,59.6,29.86,NE,45,2.2,-999.0,99,-99.99,,,0.01,Acu-Link.com,2013-05-29 09:03:00,
2013-05-29 05:18:00,59.7,59.4,29.86,ESE,112,2.2,-999.0,99,-99.99,,,0.01,Acu-Link.com,2013-05-29 09:18:00,
2013-05-29 05:33:00,59.9,59.6,29.85,NE,45,5.8,-999.0,99,-99.99,,,0.02,Acu-Link.com,2013-05-29 09:33:00,
2013-05-29 05:49:00,60.8,60.5,29.84,NNE,22,1.7,-999.0,99,-99.99,,,0.09,Acu-Link.com,2013-05-29 09:49:00,
2013-05-29 06:04:00,61.2,60.9,29.86,NW,315,3.2,-999.0,99,-99.99,,,0.09,Acu-Link.com,2013-05-29 10:04:00,
2013-05-29 06:19:00,61.3,61.0,29.90,WSW,247,0.0,-999.0,99,-99.99,,,0.09,Acu-Link.com,2013-05-29 10:19:00,
2013-05-29 06:34:00,61.3,61.0,29.91,West,270,2.7,-999.0,99,-99.99,,,0.09,Acu-Link.com,2013-05-29 10:34:00,
2013-05-29 06:50:00,61.2,60.9,29.90,SSE,157,2.2,-999.0,99,-99.99,,,0.19,Acu-Link.com,2013-05-29 10:50:00,
2013-05-29 07:05:00,61.2,60.9,29.89,East,90,1.7,-999.0,99,-99.99,,,0.20,Acu-Link.com,2013-05-29 11:05:00,
2013-05-29 07:20:00,61.2,60.9,29.89,ESE,112,2.7,-999.0,99,-99.99,,,0.20,Acu-Link.com,2013-05-29 11:20:00,
2013-05-29 07:35:00,61.2,60.9,29.90,West,270,0.0,-999.0,99,-99.99,,,0.20,Acu-Link.com,2013-05-29 11:35:00,
2013-05-29 07:50:00,61.2,60.9,29.91,SW,225,1.1,-999.0,99,-99.99,,,0.21,Acu-Link.com,2013-05-29 11:50:00,
2013-05-29 08:06:00,61.2,60.9,29.93,SSW,202,0.0,-999.0,99,-99.99,,,0.31,Acu-Link.com,2013-05-29 12:06:00,
2013-05-29 08:21:00,61.2,60.9,29.91,South,180,0.0,-999.0,99,-99.99,,,0.38,Acu-Link.com,2013-05-29 12:21:00,
2013-05-29 08:36:00,62.2,61.9,29.90,South,180,2.7,-999.0,99,-99.99,,,0.38,Acu-Link.com,2013-05-29 12:36:00,
2013-05-29 08:51:00,64.2,63.9,29.90,NE,45,2.2,-999.0,99,-99.99,,,0.38,Acu-Link.com,2013-05-29 12:51:00,
2013-05-29 09:06:00,65.5,65.2,29.90,SSE,157,1.7,-999.0,99,-99.99,,,0.38,Acu-Link.com,2013-05-29 13:06:00,
2013-05-29 09:22:00,68.9,68.6,29.90,SE,135,5.8,-999.0,99,-99.99,,,0.38,Acu-Link.com,2013-05-29 13:22:00,
2013-05-29 09:37:00,72.0,70.8,29.89,NE,45,3.2,-999.0,96,-99.99,,,0.38,Acu-Link.com,2013-05-29 13:37:00,
2013-05-29 09:52:00,73.9,71.1,29.89,SSE,157,5.3,-999.0,91,-99.99,,,0.38,Acu-Link.com,2013-05-29 13:52:00,
2013-05-29 10:07:00,74.1,71.9,29.88,East,90,3.7,-999.0,93,-99.99,,,0.38,Acu-Link.com,2013-05-29 14:07:00,
2013-05-29 10:23:00,76.1,70.9,29.89,East,90,4.2,-999.0,84,-99.99,,,0.38,Acu-Link.com,2013-05-29 14:23:00,
2013-05-29 10:38:00,78.1,74.9,29.88,SW,225,3.2,-999.0,90,-99.99,,,0.38,Acu-Link.com,2013-05-29 14:38:00,
2013-05-29 10:53:00,79.7,73.3,29.88,East,90,4.2,-999.0,81,-99.99,,,0.38,Acu-Link.com,2013-05-29 14:53:00,
2013-05-29 11:08:00,76.1,69.8,29.88,SW,225,2.2,-999.0,81,-99.99,,,0.38,Acu-Link.com,2013-05-29 15:08:00,
2013-05-29 11:24:00,78.6,71.1,29.87,WNW,292,4.7,-999.0,78,-99.99,,,0.38,Acu-Link.com,2013-05-29 15:24:00,
2013-05-29 11:39:00,79.3,70.3,29.86,WSW,247,6.8,-999.0,74,-99.99,,,0.38,Acu-Link.com,2013-05-29 15:39:00,
2013-05-29 11:54:00,81.3,71.0,29.87,WNW,292,11.9,-999.0,71,-99.99,,,0.38,Acu-Link.com,2013-05-29 15:54:00,
2013-05-29 12:09:00,81.1,71.2,29.88,WSW,247,4.2,-999.0,72,-99.99,,,0.38,Acu-Link.com,2013-05-29 16:09:00,
2013-05-29 12:25:00,80.6,69.5,29.89,West,270,7.8,-999.0,69,-99.99,,,0.38,Acu-Link.com,2013-05-29 16:25:00,
2013-05-29 12:40:00,79.3,69.5,29.88,West,270,6.8,-999.0,72,-99.99,,,0.38,Acu-Link.com,2013-05-29 16:40:00,
2013-05-29 12:55:00,79.5,69.7,29.89,West,270,5.8,-999.0,72,-99.99,,,0.38,Acu-Link.com,2013-05-29 16:55:00,
2013-05-29 13:10:00,80.2,69.9,29.89,West,270,4.7,-999.0,71,-99.99,,,0.38,Acu-Link.com,2013-05-29 17:10:00,
2013-05-29 13:25:00,80.6,71.1,29.89,West,270,6.3,-999.0,73,-99.99,,,0.38,Acu-Link.com,2013-05-29 17:25:00,
2013-05-29 13:41:00,78.6,68.8,29.88,WSW,247,5.3,-999.0,72,-99.99,,,0.38,Acu-Link.com,2013-05-29 17:41:00,
2013-05-29 13:56:00,77.4,68.0,29.88,SW,225,4.2,-999.0,73,-99.99,,,0.38,Acu-Link.com,2013-05-29 17:56:00,
2013-05-29 14:11:00,78.6,72.3,29.87,SW,225,3.7,-999.0,81,-99.99,,,0.38,Acu-Link.com,2013-05-29 18:11:00,
2013-05-29 14:26:00,80.2,70.3,29.86,SW,225,3.7,-999.0,72,-99.99,,,0.38,Acu-Link.com,2013-05-29 18:26:00,
2013-05-29 14:41:00,83.1,72.7,29.87,WSW,247,2.2,-999.0,71,-99.99,,,0.38,Acu-Link.com,2013-05-29 18:41:00,
2013-05-29 14:57:00,83.3,71.6,29.86,SW,225,7.8,-999.0,68,-99.99,,,0.38,Acu-Link.com,2013-05-29 18:57:00,
2013-05-29 15:12:00,82.0,70.4,29.86,WSW,247,2.7,-999.0,68,-99.99,,,0.38,Acu-Link.com,2013-05-29 19:12:00,
2013-05-29 15:27:00,84.2,71.6,29.87,West,270,4.2,-999.0,66,-99.99,,,0.38,Acu-Link.com,2013-05-29 19:27:00,
2013-05-29 15:42:00,82.8,71.1,29.86,WSW,247,4.7,-999.0,68,-99.99,,,0.38,Acu-Link.com,2013-05-29 19:42:00,
2013-05-29 15:57:00,83.5,71.8,29.86,WNW,292,4.2,-999.0,68,-99.99,,,0.38,Acu-Link.com,2013-05-29 19:57:00,
2013-05-29 16:13:00,82.0,70.4,29.85,SW,225,4.7,-999.0,68,-99.99,,,0.38,Acu-Link.com,2013-05-29 20:13:00,
2013-05-29 16:28:00,80.1,69.4,29.84,West,270,3.7,-999.0,70,-99.99,,,0.38,Acu-Link.com,2013-05-29 20:28:00,
2013-05-29 16:43:00,77.5,69.3,29.85,WNW,292,3.7,-999.0,76,-99.99,,,0.38,Acu-Link.com,2013-05-29 20:43:00,
2013-05-29 16:58:00,77.0,70.0,29.86,West,270,5.3,-999.0,79,-99.99,,,0.38,Acu-Link.com,2013-05-29 20:58:00,
2013-05-29 17:14:00,78.6,70.4,29.86,WSW,247,3.7,-999.0,76,-99.99,,,0.38,Acu-Link.com,2013-05-29 21:14:00,
2013-05-29 17:29:00,79.3,69.9,29.86,NW,315,2.7,-999.0,73,-99.99,,,0.38,Acu-Link.com,2013-05-29 21:29:00,
2013-05-29 17:44:00,79.3,70.7,29.87,WSW,247,3.2,-999.0,75,-99.99,,,0.38,Acu-Link.com,2013-05-29 21:44:00,
2013-05-29 17:59:00,79.3,69.1,29.87,West,270,4.2,-999.0,71,-99.99,,,0.38,Acu-Link.com,2013-05-29 21:59:00,
2013-05-29 18:14:00,80.6,68.2,29.88,West,270,6.3,-999.0,66,-99.99,,,0.38,Acu-Link.com,2013-05-29 22:14:00,
2013-05-29 18:30:00,79.2,67.3,29.87,West,270,6.3,-999.0,67,-99.99,,,0.38,Acu-Link.com,2013-05-29 22:30:00,
2013-05-29 18:45:00,78.6,66.3,29.87,West,270,5.3,-999.0,66,-99.99,,,0.38,Acu-Link.com,2013-05-29 22:45:00,
2013-05-29 19:00:00,78.1,65.4,29.87,SW,225,6.8,-999.0,65,-99.99,,,0.38,Acu-Link.com,2013-05-29 23:00:00,
2013-05-29 19:15:00,77.4,65.1,29.87,WSW,247,3.2,-999.0,66,-99.99,,,0.38,Acu-Link.com,2013-05-29 23:15:00,
2013-05-29 19:30:00,77.2,65.4,29.88,WSW,247,4.2,-999.0,67,-99.99,,,0.38,Acu-Link.com,2013-05-29 23:30:00,
2013-05-29 19:46:00,76.8,65.0,29.88,West,270,4.2,-999.0,67,-99.99,,,0.38,Acu-Link.com,2013-05-29 23:46:00,
2013-05-29 20:01:00,75.9,65.0,29.88,WSW,247,3.7,-999.0,69,-99.99,,,0.38,Acu-Link.com,2013-05-30 00:01:00,
2013-05-29 20:16:00,75.0,64.1,29.88,West,270,3.7,-999.0,69,-99.99,,,0.38,Acu-Link.com,2013-05-30 00:16:00,
2013-05-29 20:31:00,74.5,63.6,29.88,SW,225,6.3,-999.0,69,-99.99,,,0.38,Acu-Link.com,2013-05-30 00:31:00,
2013-05-29 20:46:00,73.8,63.8,29.88,WSW,247,4.7,-999.0,71,-99.99,,,0.38,Acu-Link.com,2013-05-30 00:46:00,
2013-05-29 21:02:00,73.2,63.2,29.89,West,270,4.7,-999.0,71,-99.99,,,0.38,Acu-Link.com,2013-05-30 01:02:00,
2013-05-29 21:17:00,72.3,63.5,29.89,WSW,247,3.2,-999.0,74,-99.99,,,0.38,Acu-Link.com,2013-05-30 01:17:00,
2013-05-29 21:47:00,70.5,62.9,29.91,SW,225,3.7,-999.0,77,-99.99,,,0.38,Acu-Link.com,2013-05-30 01:47:00,
2013-05-29 22:03:00,69.8,62.6,29.92,WSW,247,0.0,-999.0,78,-99.99,,,0.38,Acu-Link.com,2013-05-30 02:03:00,
2013-05-29 22:18:00,70.0,62.8,29.92,SW,225,4.2,-999.0,78,-99.99,,,0.38,Acu-Link.com,2013-05-30 02:18:00,
2013-05-29 22:33:00,70.3,62.4,29.93,WSW,247,3.7,-999.0,76,-99.99,,,0.38,Acu-Link.com,2013-05-30 02:33:00,
2013-05-29 22:48:00,70.0,62.1,29.93,West,270,2.7,-999.0,76,-99.99,,,0.38,Acu-Link.com,2013-05-30 02:48:00,
2013-05-29 23:03:00,69.4,61.9,29.93,WSW,247,2.7,-999.0,77,-99.99,,,0.38,Acu-Link.com,2013-05-30 03:03:00,
2013-05-29 23:18:00,69.4,61.9,29.94,WSW,247,1.7,-999.0,77,-99.99,,,0.38,Acu-Link.com,2013-05-30 03:18:00,
2013-05-29 23:33:00,69.4,61.9,29.94,WSW,247,1.7,-999.0,77,-99.99,,,0.38,Acu-Link.com,2013-05-30 03:33:00,
2013-05-29 23:49:00,67.5,61.8,29.94,WSW,247,0.0,-999.0,82,-99.99,,,0.38,Acu-Link.com,2013-05-30 03:49:00,